Location: Sihaung
(22.8641°N, 94.0549°E)
Time: 01:41:48
(UTC+00:00)

ATLAS 5 CENTAUR R/B - Pass Details

Date: 03 March 2021
Orbit: 516 x 1142 km, 63.3° (Epoch: 13 April)

Event Time Altitude Azimuth Distance (km) Brightness Sun altitude
Exits shadow 22:01:56 16° 142° (SE) 1,385 3.7 -28.6°
Maximum altitude 22:03:27 20° 111° (ESE) 1,223 3.7 -28.3°
Drops below altitude 10° 22:06:21 10° 63° (ENE) 1,760 4.7 -27.6°
Sets 22:08:59 0° 46° (NE) 2,695 5.6 -27.0°
